Погода в Уитби

Великобритания     54°28′49″N   0°37′30″E
темп.,
°C
ветер,
м/с
пор.,
м/с
влажн.,
%
обл.,
%
осадки,
мм/ч
давл.,
гПа
погр.,
м
21 октября, чт
чт2101:00+8зсз6128538 0.0 990691
04:00+6с111488100 3.8 9931200
07:00+5сз132189100 5.3 9991444
10:00+8сз12157243 1.4 10051603
13:00+8сз10136617 1.5 10091538
16:00+9зсз8116060 0.0 10101598
19:00+8з8146955 0.0 1012928
22:00+7з915755 0.0 10121072
22 октября, пт
пт2201:00+8з9167192 0.0 10121285
04:00+10з12187085 0.0 10101584
07:00+9зсз11167760 0.1 10121220
10:00+9сз8117683 0.3 10151223
13:00+9ссз796371 0.6 10181133
16:00+9с456499 0.0 1019771
19:00+8св1165100 0.0 1021309
22:00+8ю346972 0.0 1023291
23 октября, сб
сб2301:00+6ююз34815 0.0 1023113
04:00+7юз348585 0.0 102297
07:00+7ююз4586100 0.0 1021113
10:00+9ююз498562 0.0 1022354
13:00+12ююз71166100 0.0 1021945
16:00+12ююз71168100 0.0 1019852
19:00+10ююз8137456 0.0 1018749
22:00+9ю81576100 0.0 1018708
24 октября, вс
вс2401:00+8ююз91686100 0.0 1017651
04:00+9ю91783100 0.0 1015691
07:00+9ю101782100 0.0 1013656
10:00+10ю101781100 0.0 1013626
13:00+11ю101678100 0.0 1012690
16:00+11ююз81585100 0.8 1010777
19:00+11ююз8148922 1.3 1010591
22:00+11ююз612899 0.0 1009517
25 октября, пн
пн2501:00+9ююз6139115 0.0 1009491
04:00+9ююз6139036 0.0 1009571
07:00+9ююз6129181 0.0 1010543
10:00+10юз61083100 0.0 1011749
13:00+11зюз61076100 0.0 10121026
16:00+11зюз69715 0.0 1012856
19:00+9юз5108542 0.0 1014421
22:00+8юз5118777 0.0 1015373